Flag for Saudi Arabia Weather past 2 weeks in Turaif, Saudi Arabia

Now
77 °F

Clear.


Feels Like: 78 °F
Forecast: 70 / 96 °F
Wind: 12 mph from Northwest

Location: Turaif

Current Time: Jul 4, 2015 at 2:29:47 AM

Latest Report: Jul 4, 2015 at 1:00 AM


Visibility: 10 mi

Pressure: 29.92 "Hg (27.21 "Hg at 827m altitude)

Humidity: 36%

Dew point: 48 °F

Location of TuraifLocation

Historic Weather in Turaif — Graph

°F

Turaif temperature yesterday

Maximum temperature yesterday: 100 °F (at 3:00 PM)
Minimum temperature yesterday: 72 °F (at 6:00 AM)
Average temperature yesterday: 87 °F

Past Weeks' High & Low Weather Summary

 TemperatureHumidityPressure
High104 °F (Jul 2, 4:00 PM)94% (Jun 27, 6:00 AM)30.01 "Hg (Jun 27, 6:00 AM)
Low59 °F (Jun 25, 4:00 AM)12% (Jul 2, 4:00 PM)29.74 "Hg (Jun 26, 3:00 PM)
Average79 °F38%29.87 "Hg
* Reported Jun 19 1:00 AM — Jul 4 1:00 AM, Turaif, Weather by CustomWeather, © 2015

Note: Actual official high and low records may vary slightly from our data, if they occured in-between our weather recording intervals... More about our weather records

Advertising

Turaif weather history for previous 24 hours

 ConditionsComfort  
Time TempWeatherWind HumidityBarometerVisibility
1:00 AM
Sat, Jul 4
77 °FClear.12 mph36%29.92 "Hg10 mi
12:00 AM79 °FClear.12 mph34%29.92 "Hg10 mi
11:00 PM
Fri, Jul 3
81 °FClear.13 mph34%29.92 "Hg10 mi
10:00 PM82 °FClear.14 mph32%29.92 "Hg10 mi
9:00 PM84 °FClear.14 mph31%29.89 "Hg10 mi
8:00 PM88 °FSunny.12 mph22%29.89 "Hg10 mi
7:00 PM93 °FSunny.14 mph19%29.86 "Hg10 mi
6:00 PM95 °FSunny.16 mph16%29.86 "Hg10 mi
5:00 PM99 °FSunny.14 mph19%29.86 "Hg10 mi
4:00 PM100 °FSunny.16 mph22%29.86 "Hg10 mi
3:00 PM100 °FSunny.12 mph22%29.86 "Hg10 mi
2:00 PM99 °FSunny.16 mph24%29.86 "Hg6 mi
1:00 PM99 °FSunny.9 mph22%29.89 "Hg6 mi
12:00 PM97 °FSunny.9 mph25%29.92 "Hg6 mi
11:00 AM93 °FSunny.9 mph30%29.92 "Hg6 mi
10:00 AM91 °FSunny.9 mph28%29.89 "Hg6 mi
9:00 AM84 °FSunny.5 mph45%29.89 "Hg6 mi
8:00 AM84 °FSunny.9 mph33%29.89 "Hg6 mi
7:00 AM75 °FSunny.5 mph57%29.89 "Hg6 mi
6:00 AM72 °FClear.5 mph61%29.86 "Hg6 mi
5:00 AM73 °FClear.3 mph44%29.86 "Hg6 mi
4:00 AM77 °FClear.9 mph24%29.86 "Hg6 mi
3:00 AM79 °FClear.14 mph26%29.89 "Hg10 mi
2:00 AM81 °FClear.14 mph23%29.89 "Hg10 mi
Weather by CustomWeather, © 2015

See weather overviewHow to use our weather pages